Location: Afarni
(31.1381°N, 9.0133°W)
Time: 02:08:37
(UTC+00:00)

Daily predictions for brighter satellites

Satellite Brightness Start Highest point End
(mag) Time Altitude Azimuth Time Altitude Azimuth Time Altitude Azimuth
Cosmos 2219 Rocket 3.6 03:53:56 33° NE 03:53:56 33° NE 03:57:10 10° NNE
COSMOS 2428 3.6 04:07:23 43° NE 04:07:23 43° NE 04:11:13 10° NNE
COSMOS 2455 4.4 04:10:25 25° N 04:10:25 25° N 04:12:56 10° NNE
H-2A ROCKET BODY 4.5 04:14:18 34° SSW 04:19:47 57° SE 05:22:57 10° ENE
CZ-2C R/B 4.1 04:17:52 10° NNE 04:22:33 33° E 04:27:09 10° SSE
NOSS 3-4 (A) 4.2 04:22:51 27° S 04:25:43 46° ESE 04:31:32 10° NE
NOSS 3-4 (C) 4.2 04:22:49 26° S 04:25:49 46° ESE 04:31:37 10° NE
IDEFIX/ARIANE 42P 3.6 04:21:50 10° N 04:24:49 35° N 04:24:49 35° N
USA 234 3.9 04:24:18 10° ESE 04:30:35 52° NE 04:35:02 20° NNW
Centaur D-1AR AC-36 4.3 04:34:20 29° SSW 04:37:16 35° S 05:12:54 10° ESE
Centaur D-1AR AC-36 4.3 04:34:19 29° SSW 04:37:17 35° S 05:12:54 10° ESE
PAYLOAD A 4.1 04:37:02 10° NNE 04:41:53 69° ESE 04:46:53 10° S
Aureole 1 Rocket 4.0 04:43:38 54° WSW 04:44:41 60° WNW 04:50:29 10° N
Cosmos 1844 Rocket 2.5 04:48:51 52° NW 04:50:06 70° WSW 04:55:37 10° S
CZ-4B R/B 3.9 04:46:28 10° NNE 04:50:17 43° E 04:53:54 10° S
Delta 142 3.6 04:53:19 62° S 04:53:20 62° S 04:57:24 10° ESE
Cosmos 1709 Rocket 4.4 04:54:27 40° WNW 04:54:27 40° WNW 04:59:25 10° N
Cosmos 2184 Rocket 4.3 04:47:51 10° S 04:53:56 65° E 05:00:06 10° NNE
SWAS 4.3 04:56:53 74° SW 04:56:53 74° SW 05:01:02 10° SSE
Cosmos 2333 Rocket 2.8 04:59:36 36° NW 04:59:36 36° NW 05:04:08 10° N
Meteor 1-21 4.0 04:54:44 10° SSW 05:00:17 75° W 05:05:53 10° N
Meteor 1-22 Rocket 3.9 04:55:15 10° NNW 05:00:32 70° W 05:05:46 10° S
MSX 3.8 04:59:50 10° N 05:05:24 55° WNW 05:09:54 16° SSW
ATLAS 2AS CENTAUR R/B 3.1 05:01:26 28° SW 05:05:47 60° WNW 05:13:46 10° NNE
Cosmos 2278 Rocket 3.8 05:02:06 10° N 05:07:13 34° ENE 05:12:18 10° SE
GPS 2-05 Rocket1 3.3 05:08:02 44° ENE 05:08:02 44° ENE 05:10:09 10° E
IUS-9 SRM-1 3.0 05:07:40 27° SSE 05:07:40 27° SSE 05:10:50 10° ESE
Cosmos 1844 3.7 05:06:07 13° NNW 05:11:16 58° WSW 05:16:52 10° S
Cosmos 1953 4.5 05:11:45 10° NNE 05:15:15 28° E 05:18:42 10° SE
USA 238 DEB 4.0 05:10:22 10° NNW 05:17:40 76° ENE 05:25:08 10° SE
USA 238 4.0 05:10:29 10° NNW 05:17:47 75° ENE 05:25:13 10° SE
Meteor 1-4 Rocket 3.6 05:16:00 10° S 05:19:24 46° E 05:22:47 10° NNE
Cosmos 1190 Rocket 3.9 05:14:28 10° SSW 05:19:47 84° WNW 05:25:06 10° NNE
Cosmos 1758 3.6 05:17:22 10° N 05:21:21 68° E 05:25:21 10° SSE
Celestis-02/Orion 38 4.5 05:18:17 10° SSE 05:23:21 69° WSW 05:28:33 10° NNW
Cosmos 407 Rocket 3.4 05:18:38 10° SSW 05:23:45 66° WNW 05:28:52 10° N
RESURS DK-1 4.0 05:24:45 10° S 05:28:33 37° ESE 05:32:22 10° NE
Cosmos 2074 Rocket 4.0 05:23:14 10° SSW 05:29:23 58° W 05:35:31 10° N
USA 32 4.3 05:25:21 10° SSW 05:30:20 45° W 05:35:20 10° N
Milstar 3 Cent rocket 3.2 05:27:12 12° SW 05:31:42 33° SSE 05:35:53 10° E
H-2A R/B 4.0 05:31:04 10° NNW 05:33:02 18° NW 05:33:02 18° NW
BREEZE-M DEB (TANK) 3.8 05:27:41 17° WSW 05:34:09 54° NW 05:37:32 10° NE
CZ-4B R/B 4.2 05:31:29 10° N 05:35:16 41° WNW 05:39:11 10° SW
Cosmos 2219 Rocket 3.6 05:35:43 18° WNW 05:35:58 18° WNW 05:39:38 10° NNW
Okean O Rocket 3.2 05:32:18 10° NNE 05:36:26 39° E 05:40:30 10° SSE
ERBS 4.3 05:39:29 14° NW 05:39:29 14° NW 05:41:07 10° N
NOSS 0 Rocket 4.4 05:35:16 10° SW 05:40:47 37° WNW 05:46:28 10° N
Cosmos 2237 Rocket 2.5 05:35:45 10° SW 05:41:07 45° WNW 05:46:34 10° N
Cosmos 1025 Rocket 4.3 05:42:35 19° WNW 05:42:35 19° WNW 05:45:30 10° NNW
NOSS 3-2 (A) 4.2 05:36:44 10° NNW 05:44:42 85° WSW 05:53:18 10° SSE
CZ-4B DEB 4.3 05:39:47 10° NNE 05:45:17 82° ESE 05:50:43 10° SSW
Meteor 1-31 Rocket 3.7 05:44:47 10° NNW 05:47:58 26° WNW 05:51:07 10° SW
COSMOS 2428 4.3 05:49:28 13° WNW 05:50:19 13° WNW 05:53:00 10° NNW
Cosmos 2228 3.7 05:46:30 10° N 05:50:42 58° E 05:54:51 10° SSE
Cosmos 389 Rocket 3.1 05:48:15 10° SW 05:51:18 31° W 05:54:23 10° NNW
COBE Rocket 4.2 05:47:30 10° SSE 05:52:23 75° ENE 05:57:27 10° N
In-Cosmos 22 4.1 05:50:25 10° S 05:55:41 89° E 06:01:05 10° N
Cosmos 1707 3.5 05:52:19 10° SW 05:55:46 30° W 05:59:16 10° NNW
Cosmos 1470 3.2 05:53:39 10° NNW 05:57:16 37° W 06:00:51 10° SSW
Cosmos 1980 4.5 05:52:50 10° WSW 05:57:42 29° WNW 06:02:36 10° N
BREEZE-M DEB (TANK) 1.5 05:54:13 10° WNW 05:57:49 63° SW 05:59:55 10° SE
Cosmos 1954 Rocket 4.0 05:53:58 10° SSW 05:59:11 65° WNW 06:04:23 10° N
Delta 7925 Rocket 4.3 05:54:48 10° WSW 06:00:14 42° S 06:04:49 10° ESE
CZ-2C R/B 3.6 05:56:31 10° NNW 06:00:30 23° WNW 06:04:27 10° WSW
Cosmos 921 Rocket 3.4 05:57:57 10° NNW 06:01:55 39° W 06:05:49 10° SSW
SKYMED 2 3.6 05:58:07 10° SSE 06:02:27 89° ENE 06:06:48 10° NNW
Cosmos 489 Rocket 4.5 05:57:58 10° NNW 06:04:09 67° WSW 06:10:21 10° S
Cosmos 1484 Rocket 3.2 06:02:09 10° N 06:05:42 39° WNW 06:09:17 10° SW
NOSS 3-2 (C) 4.3 05:58:40 10° NNW 06:06:40 90° ENE 06:15:17 10° SSE
CZ-4B R/B 3.2 06:03:50 10° NNE 06:09:09 89° ESE 06:14:26 10° SSW
GP-B 3.1 06:04:48 10° S 06:09:11 60° W 06:13:33 10° N
Cosmos 1892 Rocket 3.7 06:08:41 10° SSW 06:13:01 51° W 06:17:19 10° N
USA 234 3.9 06:07:46 10° S 06:13:36 35° SW 06:19:28 10° WNW
CZ-3C R/B 3.5 06:10:21 10° SW 06:13:48 19° SSE 06:22:49 10° SE
Milstar 3 3.5 06:08:45 10° WSW 06:15:16 54° SSE 06:22:54 10° E
Cosmos 1140 Rocket 4.2 06:10:55 10° SW 06:15:29 31° WNW 06:20:03 10° N
NOSS 3-4 (C) 4.5 06:12:04 10° WSW 06:16:51 24° NW 06:21:49 10° N
BREEZE-M DEB (TANK) 3.3 06:16:42 10° WSW 06:26:30 49° NW 06:29:29 10° NNE
